| time (UTC) | temp F | wind direction | speed knots | gust knots | rain 1hr in | rain 24hr in | rain mn in | humidity % | barometer mb |
| 20260906232531 | 80 | 236 | 5.2 | 13.0 | 0.00 | 0.00 | 0.00 | 25 | 1004.2 |
| 20260906232032 | 82 | 236 | 4.3 | 10.4 | 0.00 | 0.00 | 0.00 | 24 | 1004.3 |
| 20260906231530 | 82 | 244 | 4.3 | 7.8 | 0.00 | 0.00 | 0.00 | 24 | 1004.4 |
| 20260906231032 | 82 | 218 | 1.7 | 5.2 | 0.00 | 0.00 | 0.00 | 24 | 1004.5 |
| 20260906230530 | 82 | 228 | 1.7 | 7.0 | 0.00 | 0.00 | 0.00 | 24 | 1004.5 |
| 20260906230029 | 81 | 291 | 1.7 | 7.0 | 0.00 | 0.00 | 0.00 | 24 | 1004.6 |
| 20260906225530 | 81 | 211 | 1.7 | 7.0 | 0.00 | 0.00 | 0.00 | 25 | 1004.6 |
| 20260906225028 | 80 | 215 | 0.0 | 12.2 | 0.00 | 0.00 | 0.00 | 25 | 1004.6 |
| 20260906224532 | 81 | 220 | 1.7 | 12.2 | 0.00 | 0.00 | 0.00 | 24 | 1004.7 |
| 20260906224027 | 82 | 261 | 1.7 | 13.0 | 0.00 | 0.00 | 0.00 | 23 | 1004.6 |
| 20260906223526 | 83 | 218 | 7.0 | 13.0 | 0.00 | 0.00 | 0.00 | 23 | 1004.6 |
| 20260906223025 | 82 | 177 | 1.7 | 7.0 | 0.00 | 0.00 | 0.00 | 24 | 1004.7 |
| 20260906222528 | 81 | 236 | 3.5 | 7.0 | 0.00 | 0.00 | 0.00 | 24 | 1004.7 |
| 20260906222025 | 80 | 167 | 1.7 | 5.2 | 0.00 | 0.00 | 0.00 | 25 | 1004.9 |
| 20260906221523 | 79 | 171 | 2.6 | 6.1 | 0.00 | 0.00 | 0.00 | 25 | 1005.0 |
| 20260906221022 | 79 | 222 | 0.9 | 5.2 | 0.00 | 0.00 | 0.00 | 26 | 1005.0 |
| 20260906220524 | 78 | 204 | 0.0 | 3.5 | 0.00 | 0.00 | 0.00 | 26 | 1005.1 |
| 20260906220021 | 78 | 230 | 0.0 | 7.0 | 0.00 | 0.00 | 0.00 | 26 | 1005.2 |
| 20260906215521 | 79 | 208 | 2.6 | 7.0 | 0.00 | 0.00 | 0.00 | 26 | 1005.2 |
| 20260906215021 | 78 | 250 | 0.0 | 6.1 | 0.00 | 0.00 | 0.00 | 26 | 1005.2 |
| 20260906214527 | 78 | 250 | 0.0 | 7.8 | 0.00 | 0.00 | 0.00 | 26 | 1005.3 |
| 20260906214020 | 79 | 231 | 3.5 | 9.6 | 0.00 | 0.00 | 0.00 | 26 | 1005.3 |
| 20260906213521 | 79 | 239 | 3.5 | 9.6 | 0.00 | 0.00 | 0.00 | 25 | 1005.4 |
| 20260906213020 | 80 | 213 | 1.7 | 7.0 | 0.00 | 0.00 | 0.00 | 24 | 1005.5 |
| 20260906212520 | 80 | 213 | 1.7 | 8.7 | 0.00 | 0.00 | 0.00 | 24 | 1005.5 |
| 20260906212020 | 81 | 242 | 3.5 | 8.7 | 0.00 | 0.00 | 0.00 | 24 | 1005.5 |
| 20260906211519 | 81 | 229 | 4.3 | 8.7 | 0.00 | 0.00 | 0.00 | 23 | 1005.5 |
| 20260906211018 | 81 | 173 | 2.6 | 7.8 | 0.00 | 0.00 | 0.00 | 24 | 1005.6 |
| 20260906210521 | 81 | 190 | 4.3 | 7.8 | 0.00 | 0.00 | 0.00 | 24 | 1005.6 |
| 20260906210017 | 81 | 223 | 0.9 | 7.0 | 0.00 | 0.00 | 0.00 | 24 | 1005.6 |
| 20260906205517 | 80 | 145 | 2.6 | 7.0 | 0.00 | 0.00 | 0.00 | 25 | 1005.7 |
| 20260906205016 | 80 | 186 | 0.9 | 8.7 | 0.00 | 0.00 | 0.00 | 25 | 1005.8 |
| 20260906204516 | 81 | 211 | 1.7 | 8.7 | 0.00 | 0.00 | 0.00 | 24 | 1005.8 |
| 20260906204015 | 81 | 213 | 1.7 | 7.8 | 0.00 | 0.00 | 0.00 | 24 | 1005.9 |
| 20260906203515 | 81 | 169 | 2.6 | 5.2 | 0.00 | 0.00 | 0.00 | 24 | 1005.9 |
| 20260906203013 | 81 | 192 | 2.6 | 7.0 | 0.00 | 0.00 | 0.00 | 24 | 1006.0 |
| 20260906202512 | 80 | 191 | 2.6 | 7.0 | 0.00 | 0.00 | 0.00 | 25 | 1006.1 |
| 20260906202014 | 79 | 200 | 3.5 | 5.2 | 0.00 | 0.00 | 0.00 | 25 | 1006.1 |
| 20260906201512 | 79 | 215 | 0.0 | 7.0 | 0.00 | 0.00 | 0.00 | 25 | 1006.1 |
| 20260906201010 | 79 | 213 | 2.6 | 6.1 | 0.00 | 0.00 | 0.00 | 25 | 1006.3 |
| 20260906200510 | 80 | 209 | 1.7 | 7.0 | 0.00 | 0.00 | 0.00 | 25 | 1006.4 |
| 20260906200010 | 79 | 110 | 0.0 | 12.2 | 0.00 | 0.00 | 0.00 | 25 | 1006.4 |
| 20260906195509 | 79 | 199 | 2.6 | 12.2 | 0.00 | 0.00 | 0.00 | 25 | 1006.4 |
| 20260906195008 | 80 | 207 | 0.9 | 9.6 | 0.00 | 0.00 | 0.00 | 25 | 1006.4 |
| 20260906194509 | 80 | 218 | 3.5 | 9.6 | 0.00 | 0.00 | 0.00 | 24 | 1006.5 |
| 20260906194007 | 81 | 219 | 3.5 | 9.6 | 0.00 | 0.00 | 0.00 | 23 | 1006.6 |
| 20260906193507 | 81 | 250 | 6.1 | 9.6 | 0.00 | 0.00 | 0.00 | 23 | 1006.6 |
| 20260906193005 | 81 | 207 | 1.7 | 7.0 | 0.00 | 0.00 | 0.00 | 23 | 1006.7 |
| 20260906192504 | 80 | 178 | 1.7 | 9.6 | 0.00 | 0.00 | 0.00 | 23 | 1006.7 |
| 20260906192003 | 79 | 217 | 5.2 | 9.6 | 0.00 | 0.00 | 0.00 | 24 | 1006.7 |
| 20260906191504 | 78 | 223 | 0.0 | 7.0 | 0.00 | 0.00 | 0.00 | 24 | 1006.8 |
| 20260906191001 | 78 | 213 | 1.7 | 7.8 | 0.00 | 0.00 | 0.00 | 24 | 1006.9 |
| 20260906190501 | 79 | 216 | 2.6 | 7.8 | 0.00 | 0.00 | 0.00 | 24 | 1006.8 |
| 20260906190114 | 79 | 219 | 0.9 | 6.1 | 0.00 | 0.00 | 0.00 | 24 | 1006.9 |
| 20260906185559 | 78 | 217 | 3.5 | 6.1 | 0.00 | 0.00 | 0.00 | 25 | 1007.0 |
| 20260906185058 | 78 | 224 | 0.9 | 7.8 | 0.00 | 0.00 | 0.00 | 25 | 1007.1 |
| 20260906184558 | 77 | 226 | 2.6 | 7.8 | 0.00 | 0.00 | 0.00 | 25 | 1007.2 |
| 20260906184101 | 77 | 217 | 0.0 | 9.6 | 0.00 | 0.00 | 0.00 | 25 | 1007.2 |
| 20260906183600 | 77 | 243 | 1.7 | 9.6 | 0.00 | 0.00 | 0.00 | 25 | 1007.2 |
| 20260906183101 | 78 | 249 | 5.2 | 9.6 | 0.00 | 0.00 | 0.00 | 24 | 1007.2 |
| 20260906182559 | 78 | 225 | 1.7 | 9.6 | 0.00 | 0.00 | 0.00 | 24 | 1007.2 |
| 20260906182056 | 79 | 260 | 0.0 | 9.6 | 0.00 | 0.00 | 0.00 | 24 | 1007.3 |
| 20260906181556 | 79 | 221 | 0.0 | 9.6 | 0.00 | 0.00 | 0.00 | 24 | 1007.5 |
| 20260906181054 | 79 | 153 | 0.0 | 6.1 | 0.00 | 0.00 | 0.00 | 24 | 1007.6 |
| 20260906180554 | 78 | 163 | 0.0 | 7.8 | 0.00 | 0.00 | 0.00 | 25 | 1007.7 |
| 20260906180053 | 78 | 235 | 0.9 | 8.7 | 0.00 | 0.00 | 0.00 | 25 | 1007.7 |
| 20260906175552 | 77 | 221 | 0.0 | 3.5 | 0.00 | 0.00 | 0.00 | 24 | 1007.9 |
| 20260906175056 | 78 | 242 | 0.0 | 5.2 | 0.00 | 0.00 | 0.00 | 24 | 1008.0 |
| 20260906174551 | 79 | 215 | 1.7 | 5.2 | 0.00 | 0.00 | 0.00 | 24 | 1008.0 |
| 20260906174051 | 78 | 184 | 0.0 | 5.2 | 0.00 | 0.00 | 0.00 | 25 | 1008.1 |
| 20260906173550 | 77 | 117 | 0.0 | 7.0 | 0.00 | 0.00 | 0.00 | 26 | 1008.3 |
| 20260906173049 | 77 | 228 | 1.7 | 6.1 | 0.00 | 0.00 | 0.00 | 25 | 1008.4 |
| 20260906172550 | 77 | 253 | 2.6 | 6.1 | 0.00 | 0.00 | 0.00 | 26 | 1008.5 |
| 20260906172048 | 77 | 209 | 1.7 | 7.0 | 0.00 | 0.00 | 0.00 | 26 | 1008.6 |
| 20260906171547 | 77 | 113 | 0.9 | 7.0 | 0.00 | 0.00 | 0.00 | 27 | 1008.7 |
| 20260906171045 | 76 | 200 | 0.0 | 6.1 | 0.00 | 0.00 | 0.00 | 27 | 1008.7 |
| 20260906170544 | 75 | 207 | 3.5 | 5.2 | 0.00 | 0.00 | 0.00 | 28 | 1008.8 |
| 20260906170043 | 75 | 208 | 0.9 | 7.8 | 0.00 | 0.00 | 0.00 | 27 | 1009.0 |
| 20260906165543 | 75 | 240 | 1.7 | 7.8 | 0.00 | 0.00 | 0.00 | 27 | 1008.9 |
| 20260906165041 | 75 | 186 | 0.0 | 6.1 | 0.00 | 0.00 | 0.00 | 27 | 1008.8 |
| 20260906164540 | 74 | 234 | 1.7 | 8.7 | 0.00 | 0.00 | 0.00 | 27 | 1008.9 |
| 20260906164040 | 74 | 248 | 0.9 | 8.7 | 0.00 | 0.00 | 0.00 | 27 | 1008.9 |
| 20260906163538 | 74 | 218 | 0.0 | 6.1 | 0.00 | 0.00 | 0.00 | 27 | 1008.9 |
| 20260906163038 | 73 | 217 | 0.0 | 5.2 | 0.00 | 0.00 | 0.00 | 27 | 1008.9 |
| 20260906162537 | 73 | 216 | 0.0 | 3.5 | 0.00 | 0.00 | 0.00 | 27 | 1009.0 |
| 20260906162036 | 73 | 216 | 0.9 | 4.3 | 0.00 | 0.00 | 0.00 | 26 | 1008.9 |
| 20260906161537 | 72 | 220 | 0.9 | 5.2 | 0.00 | 0.00 | 0.00 | 27 | 1008.9 |
| 20260906161036 | 72 | 219 | 0.9 | 5.2 | 0.00 | 0.00 | 0.00 | 27 | 1009.0 |
| 20260906160536 | 72 | 165 | 0.0 | 0.9 | 0.00 | 0.00 | 0.00 | 27 | 1009.1 |
| 20260906160040 | 71 | 228 | 0.0 | 4.3 | 0.00 | 0.00 | 0.00 | 27 | 1009.1 |
| 20260906155536 | 71 | 228 | 0.0 | 4.3 | 0.00 | 0.00 | 0.00 | 27 | 1009.1 |
| 20260906155037 | 71 | 228 | 0.0 | 1.7 | 0.00 | 0.00 | 0.00 | 27 | 1009.1 |
| 20260906154541 | 71 | 234 | 0.0 | 4.3 | 0.00 | 0.00 | 0.00 | 27 | 1009.0 |
| 20260906154037 | 71 | 236 | 0.0 | 6.1 | 0.00 | 0.00 | 0.00 | 27 | 1009.0 |
| 20260906153535 | 72 | 240 | 0.0 | 6.1 | 0.00 | 0.00 | 0.00 | 26 | 1009.0 |
| 20260906153035 | 73 | 169 | 0.9 | 4.3 | 0.00 | 0.00 | 0.00 | 25 | 1009.0 |
| 20260906152538 | 73 | 278 | 0.0 | 0.0 | 0.00 | 0.00 | 0.00 | 26 | 1009.0 |
| 20260906152034 | 72 | 278 | 0.0 | 0.0 | 0.00 | 0.00 | 0.00 | 26 | 1008.9 |
| 20260906151532 | 71 | 278 | 0.0 | 0.0 | 0.00 | 0.00 | 0.00 | 26 | 1009.0 |
| 20260906151031 | 71 | 278 | 0.0 | 0.0 | 0.00 | 0.00 | 0.00 | 26 | 1009.0 |
| 20260906150529 | 70 | 278 | 0.0 | 0.0 | 0.00 | 0.00 | 0.00 | 27 | 1009.0 |
| 20260906150038 | 70 | 278 | 0.0 | 0.0 | 0.00 | 0.00 | 0.00 | 28 | 1009.1 |
| 20260906145528 | 69 | 278 | 0.0 | 1.7 | 0.00 | 0.00 | 0.00 | 28 | 1009.1 |
| 20260906145027 | 69 | 278 | 0.0 | 1.7 | 0.00 | 0.00 | 0.00 | 29 | 1009.1 |
| 20260906144530 | 68 | 278 | 0.0 | 0.0 | 0.00 | 0.00 | 0.00 | 30 | 1009.1 |
| 20260906144023 | 68 | 278 | 0.0 | 1.7 | 0.00 | 0.00 | 0.00 | 30 | 1009.1 |
| 20260906143522 | 67 | 278 | 0.0 | 1.7 | 0.00 | 0.00 | 0.00 | 30 | 1009.2 |
| 20260906143020 | 66 | 278 | 0.0 | 1.7 | 0.00 | 0.00 | 0.00 | 30 | 1009.2 |
| 20260906142519 | 65 | 278 | 0.9 | 1.7 | 0.00 | 0.00 | 0.00 | 30 | 1009.2 |
| 20260906142020 | 65 | 275 | 0.0 | 0.0 | 0.00 | 0.00 | 0.00 | 30 | 1009.2 |
| 20260906141518 | 65 | 275 | 0.0 | 0.0 | 0.00 | 0.00 | 0.00 | 31 | 1009.2 |
| 20260906141016 | 64 | 275 | 0.0 | 0.0 | 0.00 | 0.00 | 0.00 | 31 | 1009.3 |
| 20260906140516 | 64 | 275 | 0.0 | 0.0 | 0.00 | 0.00 | 0.00 | 31 | 1009.4 |
| 20260906140020 | 64 | 275 | 0.0 | 0.0 | 0.00 | 0.00 | 0.00 | 31 | 1009.3 |
| 20260906135514 | 64 | 275 | 0.0 | 0.0 | 0.00 | 0.00 | 0.00 | 30 | 1009.4 |
| 20260906135012 | 63 | 275 | 0.0 | 0.0 | 0.00 | 0.00 | 0.00 | 31 | 1009.2 |
| 20260906134533 | 63 | 275 | 0.0 | 0.0 | 0.00 | 0.00 | 0.00 | 31 | 1009.3 |
| 20260906134010 | 63 | 275 | 0.0 | 0.0 | 0.00 | 0.00 | 0.00 | 31 | 1009.1 |
| 20260906133509 | 63 | 275 | 0.0 | 0.0 | 0.00 | 0.00 | 0.00 | 32 | 1009.1 |
| 20260906133009 | 62 | 275 | 0.0 | 0.0 | 0.00 | 0.00 | 0.00 | 32 | 1009.0 |
| 20260906132510 | 62 | 275 | 0.0 | 0.0 | 0.00 | 0.00 | 0.00 | 33 | 1009.1 |
| 20260906132012 | 62 | 275 | 0.0 | 0.0 | 0.00 | 0.00 | 0.00 | 32 | 1009.1 |
| 20260906131508 | 62 | 275 | 0.0 | 0.0 | 0.00 | 0.00 | 0.00 | 32 | 1009.1 |
| 20260906131012 | 62 | 275 | 0.0 | 0.0 | 0.00 | 0.00 | 0.00 | 32 | 1009.0 |
| 20260906130507 | 61 | 275 | 0.0 | 0.0 | 0.00 | 0.00 | 0.00 | 32 | 1008.9 |
| 20260906130008 | 61 | 275 | 0.0 | 0.0 | 0.00 | 0.00 | 0.00 | 33 | 1008.8 |
| 20260906125506 | 61 | 275 | 0.0 | 0.0 | 0.00 | 0.00 | 0.00 | 33 | 1008.7 |
| 20260906125005 | 61 | 275 | 0.0 | 0.0 | 0.00 | 0.00 | 0.00 | 33 | 1008.7 |
| 20260906124505 | 60 | 275 | 0.0 | 0.0 | 0.00 | 0.00 | 0.00 | 33 | 1008.7 |
| 20260906124005 | 60 | 275 | 0.0 | 0.0 | 0.00 | 0.00 | 0.00 | 33 | 1008.7 |
| 20260906123505 | 60 | 275 | 0.0 | 0.0 | 0.00 | 0.00 | 0.00 | 33 | 1008.6 |
| 20260906123004 | 61 | 275 | 0.0 | 0.0 | 0.00 | 0.00 | 0.00 | 33 | 1008.6 |
| 20260906122506 | 60 | 275 | 0.0 | 0.0 | 0.00 | 0.00 | 0.00 | 33 | 1008.6 |
| 20260906122004 | 60 | 275 | 0.0 | 0.0 | 0.00 | 0.00 | 0.00 | 34 | 1008.6 |
| 20260906121504 | 59 | 275 | 0.0 | 0.0 | 0.00 | 0.00 | 0.00 | 34 | 1008.6 |
| 20260906121004 | 59 | 275 | 0.0 | 0.0 | 0.00 | 0.00 | 0.00 | 34 | 1008.5 |
| 20260906120504 | 59 | 275 | 0.0 | 0.0 | 0.00 | 0.00 | 0.00 | 34 | 1008.6 |
| 20260906120003 | 59 | 275 | 0.0 | 0.0 | 0.00 | 0.00 | 0.00 | 35 | 1008.7 |
| 20260906115503 | 59 | 275 | 0.0 | 0.0 | 0.00 | 0.00 | 0.00 | 35 | 1008.7 |
| 20260906115001 | 59 | 275 | 0.0 | 0.0 | 0.00 | 0.00 | 0.00 | 35 | 1008.6 |
| 20260906114503 | 60 | 275 | 0.0 | 0.0 | 0.00 | 0.00 | 0.00 | 34 | 1008.5 |
| 20260906114100 | 60 | 275 | 0.0 | 0.0 | 0.00 | 0.00 | 0.00 | 34 | 1008.5 |
| 20260906113600 | 60 | 275 | 0.0 | 0.0 | 0.00 | 0.00 | 0.00 | 34 | 1008.5 |
| 20260906113100 | 61 | 275 | 0.0 | 0.0 | 0.00 | 0.00 | 0.00 | 33 | 1008.5 |
| 20260906112559 | 61 | 275 | 0.0 | 0.0 | 0.00 | 0.00 | 0.00 | 33 | 1008.5 |
| 20260906112102 | 62 | 275 | 0.0 | 0.0 | 0.00 | 0.00 | 0.00 | 33 | 1008.6 |
| 20260906111602 | 62 | 275 | 0.0 | 0.0 | 0.00 | 0.00 | 0.00 | 32 | 1008.5 |
| 20260906111058 | 62 | 275 | 0.0 | 0.0 | 0.00 | 0.00 | 0.00 | 33 | 1008.5 |
| 20260906110601 | 62 | 275 | 0.0 | 0.0 | 0.00 | 0.00 | 0.00 | 33 | 1008.4 |
| 20260906110100 | 61 | 275 | 0.0 | 2.6 | 0.00 | 0.00 | 0.00 | 33 | 1008.4 |
| 20260906105601 | 61 | 275 | 0.0 | 5.2 | 0.00 | 0.00 | 0.00 | 33 | 1008.3 |
| 20260906105057 | 60 | 275 | 1.7 | 3.5 | 0.00 | 0.00 | 0.00 | 33 | 1008.3 |
| 20260906104623 | 60 | 275 | 0.0 | 2.6 | 0.00 | 0.00 | 0.00 | 34 | 1008.2 |
| 20260906104056 | 60 | 275 | 0.0 | 0.0 | 0.00 | 0.00 | 0.00 | 34 | 1008.3 |
| 20260906103556 | 60 | 275 | 0.0 | 0.0 | 0.00 | 0.00 | 0.00 | 34 | 1008.2 |
| 20260906103055 | 60 | 275 | 0.0 | 0.0 | 0.00 | 0.00 | 0.00 | 34 | 1008.1 |
| 20260906102555 | 60 | 275 | 0.0 | 0.0 | 0.00 | 0.00 | 0.00 | 34 | 1008.2 |
| 20260906102054 | 60 | 275 | 0.0 | 0.0 | 0.00 | 0.00 | 0.00 | 34 | 1008.1 |
| 20260906101554 | 60 | 275 | 0.0 | 3.5 | 0.00 | 0.00 | 0.00 | 34 | 1008.1 |
| 20260906101055 | 60 | 275 | 1.7 | 3.5 | 0.00 | 0.00 | 0.00 | 34 | 1008.1 |
| 20260906100553 | 61 | 275 | 1.7 | 3.5 | 0.00 | 0.00 | 0.00 | 34 | 1008.1 |
| 20260906100053 | 61 | 275 | 1.7 | 3.5 | 0.00 | 0.00 | 0.00 | 34 | 1008.1 |
| 20260906095552 | 61 | 275 | 0.0 | 5.2 | 0.00 | 0.00 | 0.00 | 34 | 1008.0 |
| 20260906095052 | 61 | 275 | 2.6 | 5.2 | 0.00 | 0.00 | 0.00 | 35 | 1007.9 |
| 20260906094551 | 61 | 275 | 0.0 | 3.5 | 0.00 | 0.00 | 0.00 | 35 | 1008.0 |
| 20260906094050 | 61 | 275 | 1.7 | 3.5 | 0.00 | 0.00 | 0.00 | 35 | 1008.0 |
| 20260906093551 | 61 | 275 | 0.9 | 5.2 | 0.00 | 0.00 | 0.00 | 35 | 1008.1 |
| 20260906093107 | 61 | 275 | 2.6 | 5.2 | 0.00 | 0.00 | 0.00 | 34 | 1008.1 |
| 20260906092550 | 61 | 275 | 2.6 | 6.1 | 0.00 | 0.00 | 0.00 | 35 | 1008.0 |
| 20260906092050 | 61 | 275 | 3.5 | 6.1 | 0.00 | 0.00 | 0.00 | 35 | 1008.0 |
| 20260906091550 | 61 | 275 | 0.0 | 7.0 | 0.00 | 0.00 | 0.00 | 36 | 1008.0 |
| 20260906091051 | 61 | 274 | 3.5 | 7.0 | 0.00 | 0.00 | 0.00 | 36 | 1008.1 |
| 20260906090548 | 61 | 269 | 0.0 | 0.0 | 0.00 | 0.00 | 0.00 | 36 | 1008.1 |
| 20260906090050 | 62 | 269 | 0.0 | 0.0 | 0.00 | 0.00 | 0.00 | 36 | 1008.0 |
| 20260906085548 | 62 | 269 | 0.0 | 0.0 | 0.00 | 0.00 | 0.00 | 36 | 1008.1 |
| 20260906085052 | 62 | 269 | 0.0 | 0.0 | 0.00 | 0.00 | 0.00 | 36 | 1008.1 |
| 20260906084547 | 62 | 269 | 0.0 | 0.0 | 0.00 | 0.00 | 0.00 | 36 | 1008.1 |
| 20260906084048 | 62 | 269 | 0.0 | 0.0 | 0.00 | 0.00 | 0.00 | 36 | 1008.1 |
| 20260906083547 | 62 | 269 | 0.0 | 0.0 | 0.00 | 0.00 | 0.00 | 37 | 1008.2 |
| 20260906083047 | 62 | 269 | 0.0 | 0.0 | 0.00 | 0.00 | 0.00 | 37 | 1008.2 |
| 20260906082546 | 62 | 269 | 0.0 | 0.0 | 0.00 | 0.00 | 0.00 | 37 | 1008.2 |
| 20260906082046 | 61 | 269 | 0.0 | 0.0 | 0.00 | 0.00 | 0.00 | 37 | 1008.2 |
| 20260906081546 | 61 | 269 | 0.0 | 0.0 | 0.00 | 0.00 | 0.00 | 37 | 1008.3 |
| 20260906081045 | 61 | 269 | 0.0 | 0.0 | 0.00 | 0.00 | 0.00 | 37 | 1008.2 |
| 20260906080547 | 61 | 269 | 0.0 | 0.0 | 0.00 | 0.00 | 0.00 | 38 | 1008.3 |
| 20260906080046 | 61 | 269 | 0.0 | 0.0 | 0.00 | 0.00 | 0.00 | 38 | 1008.3 |
| 20260906075545 | 61 | 269 | 0.0 | 0.0 | 0.00 | 0.00 | 0.00 | 38 | 1008.2 |
| 20260906075045 | 61 | 269 | 0.0 | 0.0 | 0.00 | 0.00 | 0.00 | 39 | 1008.2 |
| 20260906074544 | 61 | 269 | 0.0 | 0.0 | 0.00 | 0.00 | 0.00 | 39 | 1008.3 |
| 20260906074043 | 61 | 269 | 0.0 | 0.0 | 0.00 | 0.00 | 0.00 | 39 | 1008.3 |
| 20260906073545 | 61 | 269 | 0.0 | 0.0 | 0.00 | 0.00 | 0.00 | 39 | 1008.4 |
| 20260906073042 | 61 | 269 | 0.0 | 0.0 | 0.00 | 0.00 | 0.00 | 39 | 1008.4 |
| 20260906072542 | 61 | 269 | 0.0 | 0.0 | 0.00 | 0.00 | 0.00 | 39 | 1008.4 |
| 20260906072042 | 61 | 269 | 0.0 | 0.0 | 0.00 | 0.00 | 0.00 | 39 | 1008.3 |
| 20260906071542 | 61 | 269 | 0.0 | 0.0 | 0.00 | 0.00 | 0.00 | 39 | 1008.2 |
| 20260906071040 | 61 | 269 | 0.0 | 0.0 | 0.00 | 0.00 | 0.00 | 39 | 1008.3 |
| 20260906070540 | 62 | 268 | 0.0 | 0.0 | 0.00 | 0.00 | 0.00 | 39 | 1008.3 |
| 20260906070039 | 62 | 268 | 0.0 | 0.0 | 0.00 | 0.00 | 0.00 | 39 | 1008.2 |
| 20260906065538 | 62 | 268 | 0.0 | 0.0 | 0.00 | 0.00 | 0.00 | 39 | 1008.2 |
| 20260906065138 | 62 | 267 | 0.0 | 0.0 | 0.00 | 0.00 | 0.00 | 39 | 1008.2 |
| 20260906064536 | 62 | 267 | 0.0 | 0.0 | 0.00 | 0.00 | 0.00 | 39 | 1008.2 |
| 20260906064035 | 62 | 266 | 0.0 | 0.0 | 0.00 | 0.00 | 0.00 | 39 | 1008.2 |
| 20260906063635 | 62 | 265 | 0.0 | 0.0 | 0.00 | 0.00 | 0.00 | 39 | 1008.2 |
| 20260906063034 | 62 | 264 | 0.0 | 0.0 | 0.00 | 0.00 | 0.00 | 39 | 1008.1 |
| 20260906062533 | 62 | 264 | 0.0 | 0.0 | 0.00 | 0.00 | 0.00 | 39 | 1008.0 |
| 20260906062033 | 62 | 263 | 0.0 | 0.0 | 0.00 | 0.00 | 0.00 | 39 | 1008.0 |
| 20260906061534 | 62 | 262 | 0.0 | 0.0 | 0.00 | 0.00 | 0.00 | 39 | 1008.0 |
| 20260906061031 | 62 | 261 | 0.0 | 0.0 | 0.00 | 0.00 | 0.00 | 39 | 1007.9 |
| 20260906060531 | 63 | 261 | 0.0 | 0.0 | 0.00 | 0.00 | 0.00 | 39 | 1007.9 |
| 20260906060030 | 63 | 261 | 0.0 | 0.0 | 0.00 | 0.00 | 0.00 | 39 | 1007.8 |
| 20260906055529 | 63 | 261 | 0.0 | 0.0 | 0.00 | 0.00 | 0.00 | 39 | 1007.9 |
| 20260906055030 | 64 | 261 | 0.0 | 0.0 | 0.00 | 0.00 | 0.00 | 39 | 1007.9 |
| 20260906054530 | 64 | 261 | 0.0 | 0.0 | 0.00 | 0.00 | 0.00 | 39 | 1007.9 |
| 20260906054029 | 64 | 261 | 0.0 | 0.0 | 0.00 | 0.00 | 0.00 | 39 | 1007.9 |
| 20260906053529 | 63 | 261 | 0.0 | 0.0 | 0.00 | 0.00 | 0.00 | 39 | 1008.0 |
| 20260906053028 | 63 | 261 | 0.0 | 0.0 | 0.00 | 0.00 | 0.00 | 39 | 1008.0 |
| 20260906052528 | 64 | 261 | 0.0 | 0.0 | 0.00 | 0.00 | 0.00 | 39 | 1007.9 |
| 20260906052028 | 64 | 261 | 0.0 | 0.0 | 0.00 | 0.00 | 0.00 | 38 | 1008.0 |
| 20260906051532 | 64 | 261 | 0.0 | 0.0 | 0.00 | 0.00 | 0.00 | 38 | 1008.0 |
| 20260906051028 | 64 | 256 | 0.0 | 0.9 | 0.00 | 0.00 | 0.00 | 39 | 1008.0 |
| 20260906050528 | 64 | 239 | 0.0 | 3.5 | 0.00 | 0.00 | 0.00 | 39 | 1007.9 |
| 20260906050028 | 64 | 239 | 1.7 | 3.5 | 0.00 | 0.00 | 0.00 | 39 | 1007.9 |
| 20260906045527 | 63 | 239 | 1.7 | 4.3 | 0.00 | 0.00 | 0.00 | 39 | 1007.9 |
| 20260906045027 | 63 | 239 | 0.9 | 4.3 | 0.00 | 0.00 | 0.00 | 40 | 1007.9 |
| 20260906044527 | 63 | 238 | 0.0 | 0.0 | 0.00 | 0.00 | 0.00 | 40 | 1007.9 |
| 20260906044027 | 63 | 238 | 0.0 | 0.0 | 0.00 | 0.00 | 0.00 | 39 | 1007.9 |
| 20260906043527 | 63 | 238 | 0.0 | 0.0 | 0.00 | 0.00 | 0.00 | 39 | 1008.0 |
| 20260906043027 | 63 | 238 | 0.0 | 0.0 | 0.00 | 0.00 | 0.00 | 39 | 1007.9 |
| 20260906042526 | 63 | 238 | 0.0 | 0.0 | 0.00 | 0.00 | 0.00 | 39 | 1007.8 |
| 20260906042026 | 63 | 238 | 0.0 | 0.0 | 0.00 | 0.00 | 0.00 | 38 | 1007.8 |
| 20260906041526 | 64 | 238 | 0.0 | 0.0 | 0.00 | 0.00 | 0.00 | 38 | 1007.8 |
| 20260906041026 | 64 | 238 | 0.0 | 0.0 | 0.00 | 0.00 | 0.00 | 37 | 1007.8 |
| 20260906040525 | 65 | 238 | 0.0 | 0.0 | 0.00 | 0.00 | 0.00 | 37 | 1007.8 |
| 20260906040031 | 65 | 238 | 0.0 | 0.0 | 0.00 | 0.00 | 0.00 | 36 | 1007.8 |
| 20260906035526 | 66 | 238 | 0.0 | 0.0 | 0.00 | 0.00 | 0.00 | 36 | 1007.8 |
| 20260906035025 | 66 | 238 | 0.0 | 0.0 | 0.00 | 0.00 | 0.00 | 36 | 1007.8 |
| 20260906034527 | 66 | 238 | 0.0 | 0.0 | 0.00 | 0.00 | 0.00 | 36 | 1007.8 |
| 20260906034024 | 66 | 238 | 0.0 | 0.9 | 0.00 | 0.00 | 0.00 | 35 | 1007.7 |
| 20260906033524 | 66 | 238 | 0.0 | 0.9 | 0.00 | 0.00 | 0.00 | 35 | 1007.7 |
| 20260906033024 | 66 | 238 | 0.0 | 0.0 | 0.00 | 0.00 | 0.00 | 35 | 1007.7 |
| 20260906032523 | 66 | 238 | 0.0 | 0.0 | 0.00 | 0.00 | 0.00 | 35 | 1007.6 |
| 20260906032024 | 67 | 238 | 0.0 | 0.0 | 0.00 | 0.00 | 0.00 | 35 | 1007.6 |
| 20260906031524 | 67 | 238 | 0.0 | 0.0 | 0.00 | 0.00 | 0.00 | 35 | 1007.5 |
| 20260906031026 | 67 | 238 | 0.0 | 0.0 | 0.00 | 0.00 | 0.00 | 35 | 1007.4 |
| 20260906030524 | 67 | 238 | 0.0 | 0.0 | 0.00 | 0.00 | 0.00 | 35 | 1007.4 |
| 20260906030023 | 67 | 238 | 0.0 | 0.0 | 0.00 | 0.00 | 0.00 | 34 | 1007.3 |
| 20260906025524 | 68 | 238 | 0.0 | 0.0 | 0.00 | 0.00 | 0.00 | 34 | 1007.2 |
| 20260906025023 | 68 | 238 | 0.0 | 0.0 | 0.00 | 0.00 | 0.00 | 34 | 1007.1 |
| 20260906024523 | 68 | 238 | 0.0 | 1.7 | 0.00 | 0.00 | 0.00 | 33 | 1007.1 |
| 20260906024022 | 68 | 238 | 0.0 | 4.3 | 0.00 | 0.00 | 0.00 | 33 | 1007.0 |
| 20260906023526 | 69 | 238 | 0.0 | 7.0 | 0.00 | 0.00 | 0.00 | 32 | 1007.0 |
| 20260906023022 | 69 | 238 | 2.6 | 7.8 | 0.00 | 0.00 | 0.00 | 32 | 1006.8 |
| 20260906022522 | 69 | 237 | 0.0 | 7.8 | 0.00 | 0.00 | 0.00 | 31 | 1006.8 |
| 20260906022022 | 69 | 236 | 0.9 | 6.1 | 0.00 | 0.00 | 0.00 | 30 | 1006.7 |
| 20260906021522 | 69 | 234 | 1.7 | 6.1 | 0.00 | 0.00 | 0.00 | 30 | 1006.6 |
| 20260906021024 | 69 | 234 | 0.0 | 0.9 | 0.00 | 0.00 | 0.00 | 30 | 1006.5 |
| 20260906020522 | 69 | 232 | 0.0 | 0.0 | 0.00 | 0.00 | 0.00 | 30 | 1006.5 |
| 20260906020024 | 69 | 232 | 0.0 | 0.0 | 0.00 | 0.00 | 0.00 | 31 | 1006.4 |
| 20260906015521 | 69 | 232 | 0.0 | 0.0 | 0.00 | 0.00 | 0.00 | 31 | 1006.4 |
| 20260906015021 | 69 | 232 | 0.0 | 0.0 | 0.00 | 0.00 | 0.00 | 31 | 1006.5 |
| 20260906014524 | 70 | 232 | 0.0 | 0.0 | 0.00 | 0.00 | 0.00 | 31 | 1006.5 |
| 20260906014019 | 70 | 232 | 0.0 | 0.0 | 0.00 | 0.00 | 0.00 | 31 | 1006.4 |
| 20260906013521 | 71 | 232 | 0.0 | 0.0 | 0.00 | 0.00 | 0.00 | 31 | 1006.4 |
| 20260906013027 | 71 | 232 | 0.0 | 0.0 | 0.00 | 0.00 | 0.00 | 31 | 1006.4 |
| 20260906012519 | 72 | 232 | 0.0 | 0.0 | 0.00 | 0.00 | 0.00 | 30 | 1006.4 |
| 20260906012019 | 72 | 232 | 0.0 | 0.0 | 0.00 | 0.00 | 0.00 | 30 | 1006.3 |
| 20260906011521 | 73 | 232 | 0.0 | 0.0 | 0.00 | 0.00 | 0.00 | 30 | 1006.3 |
| 20260906011019 | 73 | 232 | 0.0 | 2.6 | 0.00 | 0.00 | 0.00 | 30 | 1006.3 |
| 20260906010521 | 73 | 232 | 0.0 | 2.6 | 0.00 | 0.00 | 0.00 | 31 | 1006.3 |
| 20260906010019 | 73 | 232 | 0.0 | 3.5 | 0.00 | 0.00 | 0.00 | 30 | 1006.3 |
| 20260906005522 | 74 | 232 | 0.9 | 4.3 | 0.00 | 0.00 | 0.00 | 30 | 1006.4 |
| 20260906005019 | 74 | 232 | 0.0 | 4.3 | 0.00 | 0.00 | 0.00 | 30 | 1006.4 |
| 20260906004518 | 74 | 232 | 1.7 | 4.3 | 0.00 | 0.00 | 0.00 | 30 | 1006.3 |
| 20260906004017 | 74 | 229 | 0.9 | 5.2 | 0.00 | 0.00 | 0.00 | 30 | 1006.3 |
| 20260906003517 | 74 | 229 | 1.7 | 5.2 | 0.00 | 0.00 | 0.00 | 29 | 1006.2 |
| 20260906003018 | 75 | 229 | 1.7 | 6.1 | 0.00 | 0.00 | 0.00 | 29 | 1006.3 |
| 20260906002518 | 75 | 231 | 2.6 | 7.8 | 0.00 | 0.00 | 0.00 | 28 | 1006.1 |
| 20260906002019 | 76 | 217 | 1.7 | 7.8 | 0.00 | 0.00 | 0.00 | 27 | 1006.1 |
| 20260906001517 | 77 | 236 | 1.7 | 9.6 | 0.00 | 0.00 | 0.00 | 27 | 1006.1 |
| 20260906001016 | 78 | 223 | 6.1 | 9.6 | 0.00 | 0.00 | 0.00 | 27 | 1006.1 |
| 20260906000517 | 78 | 221 | 0.0 | 7.0 | 0.00 | 0.00 | 0.00 | 27 | 1006.1 |
| 20260906000017 | 78 | 214 | 3.5 | 7.8 | 0.00 | 0.00 | 0.00 | 26 | 1006.1 |
| 20260905235518 | 79 | 167 | 0.9 | 7.0 | 0.00 | 0.00 | 0.00 | 26 | 1006.0 |
| 20260905235020 | 79 | 219 | 2.6 | 7.0 | 0.00 | 0.00 | 0.00 | 26 | 1006.1 |
| 20260905234516 | 79 | 241 | 0.9 | 6.1 | 0.00 | 0.00 | 0.00 | 26 | 1006.2 |
| 20260905234017 | 79 | 216 | 1.7 | 6.1 | 0.00 | 0.00 | 0.00 | 27 | 1006.1 |
| 20260905233518 | 78 | 212 | 1.7 | 5.2 | 0.00 | 0.00 | 0.00 | 27 | 1006.2 |
| 20260905233017 | 78 | 177 | 0.0 | 9.6 | 0.00 | 0.00 | 0.00 | 27 | 1006.1 |